Home > Weather > Stamford > Past weeks

Flag for USA Past Weather in Stamford, Connecticut, USA — Yesterday and Last 2 Weeks

Now
71 °F

Passing clouds.


Feels Like: 74 °F
Forecast: 65 / 80 °F
Wind: No wind

Location: Westchester County Airport

Current Time: Jun 30, 2016 at 10:55:47 PM

Latest Report: Jun 30, 2016 at 9:56 PM


Visibility: 10 mi

Pressure: 30.01 "Hg

Humidity: 71%

Dew Point: 61 °F

Location of StamfordLocation

Past Weather in Stamford — Graph

°F

Stamford Temperature Yesterday

Maximum temperature yesterday: 82 °F (at 5:56 PM)
Minimum temperature yesterday: 66 °F (at 5:56 AM)
Average temperature yesterday: 74 °F

High & Low Weather Summary for the Past Weeks

 TemperatureHumidityPressure
High86 °F (Jun 21, 4:56 PM)100% (Jun 28, 11:56 PM)30.30 "Hg (Jun 28, 11:56 PM)
Low55 °F (Jun 18, 5:56 AM)26% (Jun 21, 3:56 PM)29.72 "Hg (Jun 16, 5:56 PM)
Average71 °F62%29.99 "Hg
* Reported Jun 15 8:56 PM — Jun 30 8:56 PM, Stamford, Weather by CustomWeather, © 2016

Note: Actual official high and low records may vary slightly from our data, if they occured in-between our weather recording intervals... More about our weather records

Advertising

Stamford Weather History for the Previous 24 Hours

Scroll right to see more
 ConditionsComfort  
Time TempWeatherWind HumidityBarometerVisibility
8:56 PM
Thu, Jun 30
73 °FPartly sunny.6 mph64%30.00 "Hg10 mi
7:56 PM74 °FScattered clouds.6 mph60%29.99 "Hg10 mi
6:56 PM76 °FScattered clouds.8 mph54%29.99 "Hg10 mi
5:56 PM84 °FScattered clouds.6 mph32%29.97 "Hg10 mi
4:56 PM84 °FScattered clouds.6 mph32%29.96 "Hg10 mi
3:56 PM84 °FScattered clouds.8 mph33%29.97 "Hg10 mi
2:56 PM83 °FScattered clouds.7 mph36%29.98 "Hg10 mi
1:56 PM81 °FScattered clouds.8 mph41%29.99 "Hg10 mi
12:56 PM80 °FScattered clouds.6 mph42%30.00 "Hg10 mi
11:56 AM78 °FPassing clouds.6 mph45%30.01 "Hg10 mi
10:56 AM77 °FPassing clouds.7 mph47%30.01 "Hg10 mi
9:56 AM76 °FSunny.9 mph48%30.00 "Hg10 mi
8:56 AM73 °FSunny.7 mph57%30.00 "Hg10 mi
7:56 AM70 °FSunny.7 mph66%30.00 "Hg10 mi
6:56 AM67 °FSunny.9 mph71%29.99 "Hg10 mi
5:56 AM64 °FClear.9 mph78%29.97 "Hg10 mi
4:56 AM64 °FClear.10 mph75%29.96 "Hg10 mi
3:56 AM64 °FClear.8 mph75%29.94 "Hg10 mi
2:56 AM63 °FClear.8 mph81%29.93 "Hg10 mi
1:56 AM65 °FClear.7 mph76%29.93 "Hg10 mi
12:56 AM66 °FClear.6 mph73%29.93 "Hg10 mi
11:56 PM
Wed, Jun 29
68 °FClear.6 mph70%29.92 "Hg10 mi
10:56 PM71 °FClear.7 mph63%29.91 "Hg10 mi
Weather by CustomWeather, © 2016

See weather overviewHow to use our weather pages